TimeCDT,TemperatureF,Dew PointF,Humidity,Sea Level PressureIn,VisibilityMPH,Wind Direction,Wind SpeedMPH,Gust SpeedMPH,PrecipitationIn,Events,Conditions,WindDirDegrees,DateUTC
12:53 AM,34.0,21.0,59,30.13,10.0,NNW,9.2,-,N/A,,Overcast,340,2013-10-24 05:53:00
1:53 AM,34.0,21.0,59,30.14,10.0,NNW,6.9,-,N/A,,Overcast,330,2013-10-24 06:53:00
2:53 AM,34.0,21.0,59,30.16,10.0,NW,9.2,-,N/A,,Overcast,320,2013-10-24 07:53:00
3:53 AM,34.0,21.0,59,30.17,10.0,West,6.9,-,N/A,,Overcast,280,2013-10-24 08:53:00
4:53 AM,34.0,21.9,61,30.18,10.0,WNW,10.4,-,N/A,,Overcast,300,2013-10-24 09:53:00
5:53 AM,34.0,24.1,67,30.19,10.0,WNW,8.1,-,N/A,,Overcast,290,2013-10-24 10:53:00
6:53 AM,34.0,26.1,73,30.22,10.0,WNW,9.2,-,N/A,,Overcast,290,2013-10-24 11:53:00
7:53 AM,34.0,27.0,75,30.23,10.0,WNW,8.1,-,N/A,,Overcast,300,2013-10-24 12:53:00
8:53 AM,34.0,28.0,79,30.25,10.0,WNW,8.1,-,N/A,,Overcast,300,2013-10-24 13:53:00
9:53 AM,37.0,28.9,73,30.26,10.0,WNW,5.8,17.3,N/A,,Partly Cloudy,300,2013-10-24 14:53:00
10:53 AM,39.9,28.0,63,30.26,10.0,NNW,10.4,-,N/A,,Clear,330,2013-10-24 15:53:00
11:53 AM,42.1,27.0,55,30.27,10.0,WNW,9.2,-,N/A,,Scattered Clouds,300,2013-10-24 16:53:00
12:53 PM,44.1,26.1,49,30.27,10.0,WNW,12.7,-,N/A,,Mostly Cloudy,300,2013-10-24 17:53:00
1:53 PM,43.0,27.0,53,30.27,10.0,NW,9.2,-,N/A,,Overcast,310,2013-10-24 18:53:00
2:53 PM,43.0,26.1,51,30.27,10.0,NW,11.5,19.6,N/A,,Overcast,320,2013-10-24 19:53:00
3:53 PM,43.0,27.0,53,30.28,10.0,NW,12.7,-,N/A,,Overcast,310,2013-10-24 20:53:00
4:53 PM,43.0,26.1,51,30.28,10.0,WNW,8.1,-,N/A,,Overcast,300,2013-10-24 21:53:00
5:53 PM,42.1,27.0,55,30.29,10.0,WNW,4.6,-,N/A,,Overcast,300,2013-10-24 22:53:00
6:53 PM,41.0,28.0,60,30.30,10.0,WNW,4.6,-,N/A,,Overcast,290,2013-10-24 23:53:00
7:53 PM,42.1,28.0,58,30.30,10.0,WNW,5.8,-,N/A,,Overcast,300,2013-10-25 00:53:00
8:53 PM,41.0,28.9,62,30.31,10.0,NW,10.4,-,N/A,,Overcast,310,2013-10-25 01:53:00
9:53 PM,39.9,30.0,68,30.32,10.0,NW,8.1,-,N/A,,Overcast,310,2013-10-25 02:53:00
10:53 PM,39.0,30.9,73,30.32,10.0,WNW,4.6,-,N/A,,Overcast,290,2013-10-25 03:53:00
11:53 PM,37.0,30.9,79,30.33,10.0,West,4.6,-,N/A,,Overcast,260,2013-10-25 04:53:00